[[{"header":{"parameterUnit":"m.s-1","parameterCategory":1,"la1":30.2991,"la2":30.254,"lo1":-89.0895,"lo2":-89.0444,"dy":0.0017,"dx":0.0017,"nx":28,"ny":28,"refTime":"2025-04-19T03:00:00:Z","depth":0,"parameterNumber":2,"parameterNumberName":"U-component_of_WINDS"},"data":[0,0,0,0,0,0,0,0,0,0,0,0,0,0,0,0,0,0,0,0,0,0,0,0,0,0,0,0,0,0,0,0,0,0,0,0,0,0,0,0,0,0,0,0,0,0,0,0,0,0,0,0,0,0,0,0,0,0,-5.6494,-5.6494,0,-5.654,-5.6541,-5.6541,-5.6447,-5.6444,-5.6441,-5.6438,-5.6488,-5.6493,-5.6497,0,0,0,0,0,0,0,0,0,0,0,0,0,-5.6327,-5.633,-5.6494,-5.6494,-5.6495,-5.654,-5.6541,-5.6541,-5.6448,-5.6444,-5.644,-5.6437,-5.6487,-5.6492,-5.6497,0,0,0,0,0,0,0,0,0,0,0,0,0,-5.6389,-5.6332,-5.6494,-5.6454,-5.645,-5.654,-5.6541,-5.6542,-5.6449,-5.6444,-5.6439,-5.6435,-5.6485,-5.6492,-5.6498,-5.6629,0,0,-5.6517,-5.652,0,0,0,0,0,0,0,0,-5.6386,-5.6395,-5.6459,-5.6456,-5.6453,-5.6483,-5.65,-5.6571,-5.645,-5.6449,-5.6438,-5.6433,-5.6491,-5.6496,-5.6515,-5.6631,-5.6634,-5.6518,-5.6521,-5.6524,-5.6526,0,0,0,0,0,0,0,-5.6381,-5.6393,-5.6512,-5.646,-5.6456,-5.6434,-5.6438,-5.6513,-5.6495,-5.6449,-5.6442,-5.6449,-5.6488,-5.6509,-5.6516,-5.6634,-5.6517,-5.6523,-5.6527,-5.6529,-5.686,-5.6865,0,0,0,0,0,0,-5.6382,-5.639,-5.6511,-5.6513,-5.6407,-5.6441,-5.6445,-5.6478,-5.6494,-5.6492,-5.6453,-5.6444,-5.6501,-5.6508,-5.6517,-5.667,-5.6524,-5.653,-5.6534,-5.6855,-5.6861,-5.6867,0,0,0,0,0,0,-5.6379,-5.6393,-5.6509,-5.645,-5.6463,-5.6449,-5.6487,-5.6482,-5.6502,-5.6497,-5.6494,-5.6477,-5.6497,-5.6508,-5.6602,-5.6671,-5.6533,-5.6539,-5.6849,-5.6857,-5.6864,-5.6979,0,0,0,0,0,0,-5.6374,-5.6393,-5.6442,-5.6452,-5.6466,-5.6592,-5.6491,-5.6486,-5.6513,-5.6503,-5.6519,-5.6518,-5.6495,-5.6593,-5.6608,-5.6677,-5.6543,-5.6843,-5.6853,-5.6862,-5.6969,-5.699,-5.7008,0,0,0,0,0,-5.6369,-5.6473,-5.6445,-5.646,-5.6527,-5.6596,-5.6605,-5.6575,-5.6519,-5.6569,-5.6565,-5.6517,-5.6662,-5.6603,-5.6619,-5.6692,-5.6839,-5.685,-5.6861,-5.6961,-5.6986,-5.7007,0,0,0,0,0,0,-5.6473,-5.6474,-5.6442,-5.6553,-5.6575,-5.658,-5.6641,-5.6603,-5.6642,-5.663,-5.6593,-5.6598,-5.6699,-5.6705,-5.664,-5.6819,-5.6741,-5.6756,-5.6811,-5.6835,-5.6854,-5.6849,-5.6549,0,0,0,0,0,-5.6508,-5.6563,-5.6562,-5.666,-5.6673,-5.6656,-5.6685,-5.666,-5.6682,-5.6691,-5.6694,-5.6718,-5.6768,-5.6802,-5.6849,-5.6971,-5.6973,-5.7029,-5.7048,-5.7064,-5.7076,-5.7141,-5.7165,-5.6904,-5.6904,-5.6904,0,0,-5.6583,-5.659,-5.6627,-5.6681,-5.6695,-5.6753,-5.6664,-5.673,-5.6772,-5.6701,-5.6788,-5.6793,-5.6817,-5.6925,-5.6973,-5.6933,-5.7149,-5.7078,-5.7091,-5.7095,-5.7155,-5.7179,-5.7201,-5.6911,-5.691,-5.6909,0,0,-5.6748,-5.676,-5.6841,-5.6858,-5.688,-5.6868,-5.6889,-5.69,-5.6899,-5.6987,-5.6934,-5.6985,-5.7074,-5.7092,-5.7114,-5.7288,-5.7244,-5.7304,-5.7403,-5.7466,-5.7487,-5.7505,-5.7565,-5.7587,-5.7317,-5.7318,-5.7318,0,-5.6837,-5.6922,-5.6889,-5.6958,-5.6983,-5.6921,-5.7004,-5.7022,-5.7059,-5.7078,-5.7033,-5.7142,-5.7154,-5.7265,-5.7308,-5.7328,-5.7349,-5.73,-5.7486,-5.7504,-5.752,-5.7577,-5.76,-5.7325,-5.7324,-5.7323,-5.7322,0,-5.703,-5.7091,-5.7154,-5.719,-5.7223,-5.7299,-5.7278,-5.7316,-5.7289,-5.7283,-5.7373,-5.7385,-5.7432,-5.7458,-5.7433,-5.7566,-5.754,-5.7492,-5.7412,-5.7553,-5.7605,-5.7627,-5.7334,-5.7332,-5.733,-5.7328,0,0,-5.726,-5.7277,-5.7301,-5.7316,-5.7337,-5.7383,-5.7457,-5.7503,-5.7535,-5.7564,-5.7624,-5.7701,-5.7656,-5.768,-5.7658,-5.7713,-5.7848,-5.7658,-5.7658,-5.7691,-5.7994,-5.8028,-5.8054,-5.7821,-5.7825,-5.7828,-5.7991,0,-5.7421,-5.7546,-5.7519,-5.7643,-5.7697,-5.764,-5.7704,-5.7725,-5.7721,-5.7768,-5.7764,-5.7818,-5.7756,-5.777,-5.7823,-5.7821,-5.7908,-5.7809,-5.7876,-5.7879,-5.7869,-5.8082,-5.8119,-5.8272,-5.8012,-5.8016,-5.8018,0,-5.7626,-5.7661,-5.7789,-5.7801,-5.7823,-5.7881,-5.792,-5.7966,-5.7988,-5.7982,-5.801,-5.7976,-5.805,-5.7971,-5.8072,-5.8005,-5.8032,-5.8036,-5.8041,-5.8044,-5.7955,-5.8089,-5.832,-5.8342,-5.8051,-5.8048,-5.8046,0,-5.7778,-5.7857,-5.7944,-5.7959,-5.7976,-5.8018,-5.8027,-5.8045,-5.8074,-5.8109,-5.8128,-5.8172,-5.8196,-5.8231,-5.8211,-5.8156,-5.8316,-5.8235,-5.8312,-5.8312,-5.8346,-5.8343,-5.8582,-5.8368,-5.8367,-5.8367,-5.8366,0,-5.7959,-5.804,-5.8012,-5.8065,-5.8154,-5.8123,-5.8212,-5.8215,-5.8231,-5.8284,-5.8239,-5.829,-5.8262,-5.8311,-5.8296,-5.8381,-5.8393,-5.839,-5.8385,-5.8393,-5.8393,-5.8407,-5.8395,-5.8373,-5.8372,-5.837,-5.8369,0,-5.8142,-5.8127,-5.8218,-5.8226,-5.823,-5.8295,-5.8302,-5.8352,-5.8346,-5.8414,-5.8428,-5.8418,-5.8474,-5.8458,-5.8519,-5.8509,-5.8616,-5.8599,-5.8608,-5.8603,-5.8679,-5.8672,-5.8934,-5.8966,-5.8733,-5.8735,-5.8737,0,-5.8258,-5.8318,-5.8333,-5.8365,-5.8377,-5.8429,-5.8458,-5.8432,-5.8464,-5.8494,-5.8541,-5.8592,-5.8632,-5.8724,-5.8722,-5.8769,-5.8751,-5.8839,-5.8757,-5.8763,-5.8749,-5.8745,-5.875,-5.8855,-5.8858,-5.886,-5.8861,0,-5.8464,-5.8454,-5.8497,-5.8538,-5.8574,-5.8606,-5.8633,-5.8662,-5.8637,-5.8676,-5.8732,-5.8763,-5.8825,-5.8876,-5.8919,-5.8929,-5.8891,-5.8888,-5.8907,-5.8915,-5.8917,-5.8915,-5.865,-5.8881,-5.8879,-5.8878,-5.8877,-5.8876,-5.8615,-5.8666,-5.8684,-5.8734,-5.8751,-5.8778,-5.8825,-5.8824,-5.887,-5.8917,-5.8899,-5.8963,-5.8985,-5.9038,-5.9054,-5.9104,-5.907,-5.9099,-5.9106,-5.9113,-5.9122,-5.8911,-5.9112,-5.9111,-5.9111,-5.911,-5.911,0,-5.8817,-5.8826,-5.8872,-5.8911,-5.8951,-5.8912,-5.8941,-5.8977,-5.9033,-5.9056,-5.9096,-5.916,-5.921,-5.9213,-5.926,-5.93,-5.9284,-5.9313,-5.9309,-5.9311,-5.915,-5.9127,-5.9325,-5.9325,-5.9325,-5.9325,-5.9325,-5.9325,-5.8927,-5.9009,-5.9001,-5.9093,-5.9102,-5.9163,-5.9182,-5.9207,-5.9225,-5.9298,-5.9339,-5.9341,-5.9356,-5.9404,-5.9449,-5.9448,-5.9467,-5.9502,-5.9496,-5.9344,-5.9323,-5.9302,-5.928,-5.9507,-5.9507,-5.9652,-5.9653,-5.9654]},{"header":{"parameterUnit":"m.s-1","parameterCategory":1,"la1":30.2991,"la2":30.254,"lo1":-89.0895,"lo2":-89.0444,"dy":0.0017,"dx":0.0017,"nx":28,"ny":28,"refTime":"2025-04-19T03:00:00:Z","depth":0,"parameterNumber":3,"parameterNumberName":"V-component_of_WINDS"},"data":[0,0,0,0,0,0,0,0,0,0,0,0,0,0,0,0,0,0,0,0,0,0,0,0,0,0,0,0,0,0,0,0,0,0,0,0,0,0,0,0,0,0,0,0,0,0,0,0,0,0,0,0,0,0,0,0,0,0,2.9709,2.971,0,2.9774,2.9775,2.9776,2.9788,2.9788,2.9787,2.9787,2.9851,2.9854,2.9856,0,0,0,0,0,0,0,0,0,0,0,0,0,2.9597,2.9599,2.9709,2.971,2.9711,2.9774,2.9775,2.9776,2.9788,2.9788,2.9787,2.9786,2.9851,2.9853,2.9856,0,0,0,0,0,0,0,0,0,0,0,0,0,2.9652,2.9599,2.9709,2.9725,2.9727,2.9774,2.9775,2.9776,2.9788,2.9788,2.9787,2.9786,2.985,2.9853,2.9856,2.9892,0,0,2.9866,2.9868,0,0,0,0,0,0,0,0,2.9649,2.9656,2.9722,2.9724,2.9726,2.9772,2.9759,2.9815,2.9788,2.9765,2.9787,2.9786,2.9826,2.9831,2.9845,2.9895,2.9898,2.9867,2.9869,2.987,2.9871,0,0,0,0,0,0,0,2.9645,2.9653,2.9735,2.9723,2.9725,2.9729,2.9736,2.977,2.9799,2.9767,2.9768,2.9776,2.9827,2.9841,2.9846,2.9899,2.9867,2.9869,2.9871,2.9873,2.9984,2.9985,0,0,0,0,0,0,2.9638,2.965,2.9733,2.9737,2.9685,2.9731,2.9739,2.9758,2.9798,2.9804,2.9776,2.9776,2.9836,2.9842,2.9849,2.9895,2.987,2.9873,2.9875,2.9983,2.9984,2.9985,0,0,0,0,0,0,2.9636,2.9646,2.973,2.9694,2.9705,2.9734,2.9755,2.976,2.9775,2.9805,2.9811,2.9786,2.9836,2.9844,2.9882,2.9897,2.9875,2.9878,2.9982,2.9983,2.9985,2.9986,0,0,0,0,0,0,2.9633,2.9645,2.9658,2.9694,2.9707,2.9762,2.9756,2.9762,2.978,2.9781,2.9816,2.9821,2.9836,2.9877,2.9885,2.9901,2.988,2.9981,2.9982,2.9984,2.9984,2.9987,2.9989,0,0,0,0,0,2.9629,2.9655,2.9659,2.9669,2.9724,2.9763,2.977,2.9787,2.9782,2.9796,2.9816,2.982,2.9894,2.988,2.989,2.9907,2.998,2.9982,2.9984,2.9983,2.9987,2.9989,0,0,0,0,0,0,2.9619,2.966,2.9665,2.9703,2.973,2.9765,2.9783,2.979,2.9818,2.9817,2.9836,2.9844,2.9881,2.9898,2.9882,2.9945,2.9936,2.9941,2.9933,2.9936,2.9938,2.9934,2.9883,0,0,0,0,0,2.9622,2.965,2.9684,2.9715,2.9728,2.9753,2.9771,2.9782,2.981,2.9821,2.9844,2.987,2.99,2.9919,2.9947,2.9987,2.9996,3.0004,3.0006,3.0008,3.0011,3.0036,3.004,2.9992,2.9992,2.9992,0,0,2.9627,2.9653,2.9669,2.9714,2.9736,2.9765,2.9763,2.9793,2.9815,2.9825,2.9863,2.9881,2.9912,2.9951,2.997,2.9966,3.0027,3.0011,3.0012,3.0015,3.0038,3.0043,3.0047,2.9994,2.9994,2.9993,0,0,2.9652,2.9674,2.9703,2.9726,2.9759,2.9776,2.9783,2.9818,2.9831,2.9869,2.9878,2.9905,2.9954,2.9977,2.9995,3.0031,3.0036,3.004,3.0053,3.0076,3.008,3.0083,3.0098,3.0102,3.0043,3.0043,3.0043,0,2.9655,2.9699,2.9717,2.9748,2.9768,2.978,2.9811,2.9831,2.9872,2.9886,2.9881,2.9946,2.9968,3.0014,3.0023,3.0036,3.0046,3.0036,3.0078,3.0081,3.0085,3.0099,3.0104,3.0044,3.0044,3.0044,3.0043,0,2.9701,2.9732,2.9752,2.9792,2.9814,2.9845,2.9868,2.9889,2.9898,2.9916,2.9956,2.9983,3.0018,3.003,3.0039,3.0078,3.0075,3.0074,3.0066,3.009,3.0103,3.0109,3.0044,3.0044,3.0044,3.0044,0,0,2.9721,2.9773,2.978,2.98,2.9839,2.9863,2.9894,2.993,2.9948,2.9976,3.0004,3.0047,3.0047,3.0067,3.0079,3.01,3.0129,3.0097,3.0098,3.0103,3.0176,3.0177,3.0182,3.0133,3.0134,3.0135,3.0173,0,2.9752,2.9809,2.9828,2.9875,2.9905,2.9918,2.9946,2.9973,2.9991,3.0018,3.0038,3.0069,3.0066,3.0079,3.01,3.0121,3.0144,3.0118,3.0159,3.0161,3.0152,3.0189,3.019,3.0225,3.0179,3.018,3.018,0,2.9795,2.9826,2.9877,2.9914,2.9927,2.9952,2.9987,3.0013,3.0045,3.0056,3.008,3.0091,3.0126,3.0116,3.0164,3.0146,3.0164,3.0177,3.0179,3.0184,3.0172,3.0196,3.0237,3.0243,3.0188,3.0188,3.0187,0,2.9807,2.986,2.9898,2.9915,2.9958,2.9976,2.9995,3.0025,3.0046,3.0077,3.0091,3.0125,3.0144,3.017,3.019,3.0181,3.0237,3.0228,3.0249,3.0248,3.026,3.0259,3.0305,3.027,3.027,3.027,3.027,0,2.984,2.9871,2.9905,2.9928,2.9964,2.9985,3.002,3.004,3.0067,3.0095,3.0108,3.0134,3.0159,3.0188,3.0204,3.0242,3.025,3.0261,3.0265,3.0261,3.026,3.0273,3.0272,3.0272,3.0271,3.0271,3.0271,0,2.9859,2.9882,2.9925,2.9964,2.9974,2.9999,3.0032,3.0056,3.0075,3.011,3.012,3.015,3.0185,3.0208,3.0253,3.0264,3.0306,3.0309,3.0296,3.0298,3.0318,3.0316,3.0374,3.0384,3.0341,3.0342,3.0342,0,2.9879,2.9903,2.9945,2.9965,2.9985,3.0016,3.0039,3.0061,3.0083,3.0122,3.0142,3.0178,3.0209,3.0265,3.0291,3.0326,3.033,3.0348,3.0335,3.0331,3.0332,3.0331,3.0334,3.035,3.0351,3.0351,3.0351,0,2.9912,2.9923,2.9954,2.9991,3.0017,3.0046,3.0075,3.0091,3.0119,3.0143,3.0181,3.0204,3.0251,3.0288,3.0326,3.0345,3.0354,3.0355,3.0362,3.0358,3.035,3.0356,3.0303,3.0354,3.0354,3.0353,3.0353,3.0353,2.9933,2.9956,2.999,3.0025,3.005,3.0078,3.0103,3.0125,3.0157,3.0197,3.0209,3.0248,3.028,3.0332,3.0353,3.0384,3.0382,3.0391,3.0394,3.0396,3.0397,3.0345,3.0391,3.0391,3.0391,3.0391,3.0391,0,2.9969,2.9992,3.0024,3.0065,3.0093,3.0099,3.0132,3.0155,3.019,3.022,3.025,3.0294,3.033,3.0359,3.0397,3.0416,3.0421,3.0425,3.0424,3.0429,3.0396,3.0387,3.0421,3.0421,3.0421,3.0421,3.0421,3.0421,2.9991,3.0031,3.0046,3.0099,3.0122,3.0161,3.018,3.0206,3.023,3.0279,3.0309,3.0328,3.0358,3.0398,3.0432,3.044,3.0453,3.0457,3.0466,3.0435,3.0431,3.0428,3.042,3.046,3.046,3.0497,3.0497,3.0497]}]]